Mumbai, India

10:44 AM IST on March 30, 2017 (GMT +0530)
Chhatrapati Shivaji International

Weather History for VABB - June, 2013

Change the Weather History Date:

Saturday, June 22, 2013

  Actual Average Record
Temperature  
Mean Temperature 84 °F -  
Max Temperature 89 °F 85 °F 91 °F (1998)
Min Temperature 78 °F 77 °F 75 °F (2016)
Cooling Degree Days 18    
Growing Degree Days 34 (Base 50)    
Moisture  
Dew Point 77 °F    
Average Humidity 77    
Maximum Humidity 89    
Minimum Humidity 61    
Precipitation  
Precipitation 0.24 in - - ()
Sea Level Pressure  
Sea Level Pressure 29.68 in    
Wind  
Wind Speed 8 mph ()    
Max Wind Speed 14 mph    
Max Gust Speed 23 mph    
Visibility 1.5 miles    
Events Rain    
Averages and records for this station are not official NWS values.
T = Trace of Precipitation, MM = Missing Value Source: Averaged Metar Reports

Daily Weather History Graph

Daily Weather History Graph

Search for Another Location

Airport or City:

Trip Planner

Search our weather history database for the weather conditions in past years. The results will help you decide how hot, cold, wet, or windy it might be!

Date:

Astronomy

Jun. 22, 2013 Rise Set
Actual Time 6:02 AM IST 7:19 PM IST
Civil Twilight 5:37 AM IST 7:43 PM IST
Nautical Twilight 5:08 AM IST 8:12 PM IST
Astronomical Twilight 4:38 AM IST 8:42 PM IST
Moon 6:13 PM IST (6/22) 4:39 AM IST (6/22)
Length of Visible Light 14h 05m
Length of Day
13h 17m
Waxing Gibbous, 98% of the Moon is Illuminated
Jun 22
Waxing Gibbous
Jun 23
Full
Jun 30
Last Quarter
Jul 8
New
Jul 16
First Quarter

Hourly Weather History & Observations

Time (IST) Temp. Heat Index Dew Point Humidity Pressure Visibility Wind Dir Wind Speed Gust Speed Precip Events Conditions
12:10 AM 84.2 °F 94.1 °F 77.0 °F 79% 29.71 in 1.6 mi WSW 9.2 mph - N/A   Haze
12:40 AM 84.2 °F 96.1 °F 78.8 °F 84% 29.68 in 1.6 mi WSW 9.2 mph - N/A   Haze
1:10 AM 82.4 °F 92.4 °F 78.8 °F 89% 29.68 in 1.6 mi WSW 9.2 mph - N/A   Haze
1:40 AM 84.2 °F 94.1 °F 77.0 °F 79% 29.68 in 1.6 mi WSW 8.1 mph - N/A   Haze
2:10 AM 82.4 °F 92.4 °F 78.8 °F 89% 29.68 in 1.6 mi SW 8.1 mph - N/A   Haze
2:30 AM 82 °F - 77 °F 82% 29.67 in 1 mi SW 5.8 mph - - Rain Light Rain
2:40 AM 82.4 °F 90.9 °F 77.0 °F 84% 29.65 in 1.6 mi WSW 11.5 mph - N/A   Haze
3:10 AM 82.4 °F 90.9 °F 77.0 °F 84% 29.65 in 1.6 mi WSW 11.5 mph - N/A   Haze
3:40 AM 82.4 °F 90.9 °F 77.0 °F 84% 29.65 in 1.6 mi WSW 9.2 mph - N/A   Haze
4:10 AM 82.4 °F 90.9 °F 77.0 °F 84% 29.65 in 1.6 mi WSW 8.1 mph - N/A   Haze
4:40 AM 82.4 °F 90.9 °F 77.0 °F 84% 29.65 in 1.6 mi SW 8.1 mph - N/A   Haze
5:10 AM 82.4 °F 90.9 °F 77.0 °F 84% 29.65 in 1.6 mi WSW 9.2 mph - N/A   Haze
5:30 AM 82 °F - 77 °F 80% 29.66 in 1 mi WSW 5.8 mph - -   Haze
6:10 AM 82.4 °F 90.9 °F 77.0 °F 84% 29.65 in 1.9 mi WSW 9.2 mph - N/A   Haze
6:40 AM 82.4 °F 90.9 °F 77.0 °F 84% 29.68 in 1.9 mi WSW 8.1 mph - N/A   Haze
7:10 AM 84.2 °F 96.1 °F 78.8 °F 84% 29.68 in 1.9 mi WSW 8.1 mph - N/A   Haze
7:40 AM 84.2 °F 94.1 °F 77.0 °F 79% 29.68 in 1.9 mi West 10.4 mph - N/A   Haze
8:10 AM 86.0 °F 96.9 °F 77.0 °F 74% 29.71 in 1.9 mi WSW 9.2 mph - N/A   Haze
8:30 AM 85 °F - 78 °F 73% 29.70 in 1 mi WSW 9.2 mph - - Rain Light Rain
8:40 AM 84.2 °F 94.1 °F 77.0 °F 79% 29.71 in 1.2 mi West 11.5 mph - N/A   Scattered Clouds
9:10 AM 86.0 °F 96.9 °F 77.0 °F 74% 29.71 in 1.6 mi WSW 10.4 mph - N/A   Haze
9:40 AM 86.0 °F 96.9 °F 77.0 °F 74% 29.71 in 1.2 mi WSW 10.4 mph - N/A   Haze
10:10 AM 87.8 °F 99.7 °F 77.0 °F 70% 29.71 in 1.6 mi West 13.8 mph - N/A   Haze
10:40 AM 87.8 °F 99.7 °F 77.0 °F 70% 29.71 in 1.6 mi WSW 8.1 mph 19.6 mph N/A   Haze
11:10 AM 87.8 °F 99.7 °F 77.0 °F 70% 29.71 in 1.6 mi West 9.2 mph 20.7 mph N/A   Haze
11:30 AM 87 °F - 77 °F 66% 29.70 in 1 mi WSW 6.9 mph - -   Haze
11:40 AM 87.8 °F 99.7 °F 77.0 °F 70% 29.71 in 1.6 mi WSW 13.8 mph - N/A   Haze
12:10 PM 87.8 °F 99.7 °F 77.0 °F 70% 29.71 in 1.6 mi WSW 8.1 mph 19.6 mph N/A   Haze
12:40 PM 87.8 °F 99.7 °F 77.0 °F 70% 29.68 in 1.6 mi West 13.8 mph - N/A   Haze
1:10 PM 87.8 °F 99.7 °F 77.0 °F 70% 29.68 in 1.7 mi WSW 8.1 mph 19.6 mph N/A   Haze
1:40 PM 87.8 °F 99.7 °F 77.0 °F 70% 29.68 in 1.6 mi WSW 8.1 mph 19.6 mph N/A   Haze
2:10 PM 89.6 °F 104.7 °F 78.8 °F 70% 29.68 in 1.4 mi WSW 8.1 mph 19.6 mph N/A   Haze
2:30 PM 89 °F - 77 °F 61% 29.68 in 2 mi SW 6.9 mph - -   Mostly Cloudy
2:40 PM 89.6 °F 102.2 °F 77.0 °F 66% 29.68 in 1.4 mi West 8.1 mph 19.6 mph N/A   Haze
3:10 PM 89.6 °F 102.2 °F 77.0 °F 66% 29.65 in 1.5 mi West 8.1 mph 19.6 mph N/A   Haze
3:40 PM 89.6 °F 102.2 °F 77.0 °F 66% 29.65 in 1.3 mi West 11.5 mph 23.0 mph N/A Rain Light Rain
4:10 PM 84.2 °F 94.1 °F 77.0 °F 79% 29.65 in 1.3 mi West 8.1 mph 19.6 mph N/A   Mostly Cloudy
5:30 PM 84 °F - 76 °F 72% 29.65 in 1 mi SW 4.6 mph - - Rain Light Rain
5:40 PM 84.2 °F 94.1 °F 77.0 °F 79% 29.65 in 1.2 mi WSW 8.1 mph - N/A   Haze
6:10 PM 84.2 °F 96.1 °F 78.8 °F 84% 29.65 in 1.6 mi WSW 10.4 mph - N/A   Haze
6:40 PM 84.2 °F 94.1 °F 77.0 °F 79% 29.65 in 1.7 mi WSW 12.7 mph - N/A   Haze
7:10 PM 84.2 °F 94.1 °F 77.0 °F 79% 29.65 in 1.6 mi WSW 11.5 mph - N/A   Haze
7:40 PM 84.2 °F 94.1 °F 77.0 °F 79% 29.65 in 1.6 mi WSW 9.2 mph - N/A   Haze
8:10 PM 84.2 °F 94.1 °F 77.0 °F 79% 29.65 in 1.4 mi WSW 11.5 mph - N/A   Haze
8:30 PM 83 °F - 78 °F 81% 29.68 in 1 mi SW 4.6 mph - - Rain Light Rain
8:40 PM 84.2 °F 96.1 °F 78.8 °F 84% 29.68 in 1.4 mi WSW 8.1 mph - N/A   Haze
9:10 PM 84.2 °F 94.1 °F 77.0 °F 79% 29.68 in 1.4 mi WSW 9.2 mph - N/A   Haze
9:40 PM 82.4 °F 90.9 °F 77.0 °F 84% 29.68 in 1.6 mi SW 8.1 mph - N/A   Haze
10:10 PM 84.2 °F 94.1 °F 77.0 °F 79% 29.68 in 1.6 mi SW 8.1 mph - N/A   Haze
10:40 PM 84.2 °F 94.1 °F 77.0 °F 79% 29.68 in 1.6 mi SW 8.1 mph - N/A   Haze
11:10 PM 84.2 °F 94.1 °F 77.0 °F 79% 29.68 in 1.6 mi SW 10.4 mph - N/A   Haze
11:30 PM 83 °F - 77 °F 79% 29.70 in 1 mi SW 5.8 mph - -   Haze
11:40 PM 84.2 °F 94.1 °F 77.0 °F 79% 29.68 in 1.6 mi SW 9.2 mph - N/A   Haze